Location: Cerfontaine
(50.2601°N, 4.0270°E)
Time: 20:22:32
(UTC+00:00)

Daily predictions for brighter satellites

Satellite Brightness Start Highest point End
(mag) Time Altitude Azimuth Time Altitude Azimuth Time Altitude Azimuth
Cosmos 1626 Rocket 3.6 16:09:24 10° N 16:13:42 60° ENE 16:17:56 10° SSE
Meteor 1-28 Rocket 3.9 16:11:55 10° NE 16:14:54 29° E 16:17:52 10° SSE
NOSS 2-2 (C) 3.0 16:13:04 10° SW 16:16:13 61° NW 16:19:12 10° NE
JB-3 4.1 16:12:43 10° NNE 16:16:22 76° ESE 16:19:59 10° S
Cosmos 1315 Rocket 3.1 16:18:27 10° SSW 16:22:16 67° WNW 16:26:06 10° N
BlueWalker 3 4.1 16:19:17 10° W 16:22:27 29° SW 16:25:37 10° SSE
ATLAS CENTAUR R/B 1.8 16:21:49 10° NW 16:24:57 48° SW 16:28:00 10° SSE
Thor Agena Rocket 3.6 16:22:38 10° SE 16:27:43 57° ENE 16:32:45 10° N
Cosmos 2219 4.3 16:23:26 10° NNW 16:28:01 24° NE 16:32:35 10° E
CENTAUR R/B 3.1 16:23:09 10° WSW 16:28:55 55° NW 16:36:16 10° NE
Cosmos 1484 Rocket 2.5 16:28:46 10° SSE 16:32:17 88° ENE 16:35:48 10° NNW
USA 290 2.1 16:29:16 10° NNW 16:32:33 81° ENE 16:35:48 10° SSE
Cosmos 1544 Rocket 3.6 16:28:31 10° S 16:32:52 66° E 16:37:17 10° NNE
SL-16 R/B 2.6 16:27:12 10° NNE 16:33:27 72° ESE 16:39:38 10° S
GEOS 3 Rocket 4.3 16:29:13 10° NE 16:34:18 41° ESE 16:39:21 10° SSW
Lacrosse 5 rocket 1.9 16:30:53 10° W 16:34:24 38° NNW 16:37:41 11° NE
Cosmos 1844 Rocket 4.4 16:31:53 10° N 16:34:38 14° NNE 16:37:19 10° NE
Cosmos 1980 Rocket 3.8 16:32:01 10° SE 16:35:06 15° E 16:37:57 11° ENE
Iridium 51 4.3 16:35:13 10° SSW 16:38:19 60° W 16:41:31 10° N
Lacrosse 4 Rocket 3.1 16:36:00 10° W 16:39:24 25° NW 16:42:45 10° NNE
BREEZE M DEB (TANK) 3.8 16:37:35 10° SSW 16:39:37 19° SSE 16:41:14 10° ESE
CORIOLIS 4.1 16:36:38 10° SSE 16:41:55 66° ENE 16:47:13 10° N
Cosmos 2263 Rocket 2.8 16:38:09 10° NNW 16:43:22 36° NE 16:48:34 10° ESE
IRIDIUM 104 4.4 16:38:23 10° N 16:43:31 54° E 16:48:37 10° SSE
Cosmos 2228 3.6 16:39:33 10° SSW 16:43:44 57° WNW 16:47:57 10° N
Cosmos 1777 Rocket 4.1 16:38:58 10° S 16:44:06 57° ESE 16:49:14 10° NNE
CZ-2D R/B 3.2 16:45:40 10° SE 16:48:34 36° ENE 16:51:30 10° N
Okean 1-7 Rocket 3.6 16:46:23 10° N 16:50:43 54° ENE 16:55:00 10° SSE
Cosmos 1602 Rocket 3.5 16:48:16 10° N 16:52:41 81° E 16:57:01 10° SSE
IRIDIUM 114 4.3 16:47:29 10° N 16:52:42 65° E 16:57:52 10° SSE
Cosmos 1461 2.8 16:51:40 10° SSW 16:55:30 61° SE 16:58:30 16° NE
Cosmos 1933 3.6 16:54:08 10° SSE 16:57:43 40° E 17:01:20 10° NNE
USA 215 3.7 16:53:50 14° ENE 16:59:22 50° N 17:05:38 10° WNW
IRS-1C 4.1 16:54:38 10° SSE 16:59:54 68° ENE 17:05:12 10° N
Cosmos 2227 Rocket 2.1 16:54:22 10° NNW 17:00:02 68° ENE 17:05:39 10° SE
YAOGAN 1 3.6 16:57:28 10° ESE 17:00:47 22° ENE 17:04:07 10° NNE
IRIDIUM 103 4.3 16:56:37 10° N 17:01:53 77° E 17:07:05 10° S
NOSS 2-3 (E) 4.4 16:59:06 10° S 17:02:08 25° ESE 17:03:39 19° E
NOSS 2-3 (D) 4.5 16:59:49 10° S 17:02:49 23° ESE 17:04:13 19° E
Cosmos 1743 3.0 17:00:01 10° NNW 17:03:12 55° W 17:06:23 10° S
NOSS 7 (H) 4.0 17:00:41 10° NW 17:03:37 84° SW 17:06:46 10° SE
Cosmos 1486 Rocket 4.1 16:58:37 10° SSW 17:03:50 82° WNW 17:09:07 10° NNE
Cosmos 2369 Rocket 4.3 17:00:33 10° WNW 17:04:16 17° NNW 17:08:00 10° N
SJ-12 3.7 17:00:58 10° SSE 17:04:41 61° ENE 17:08:26 10° N
Cosmos 2151 3.1 17:02:37 10° NNW 17:06:47 75° W 17:10:56 10° S
Cosmos 2360 4.3 17:02:18 10° SSW 17:08:01 82° WNW 17:13:46 10° NNE
Cosmos 2279 Rocket 4.5 17:05:36 10° SSW 17:11:45 64° WNW 17:17:58 10° N
Cosmos 1655 Rocket 4.1 17:06:30 10° N 17:12:38 54° ENE 17:18:42 10° SSE
Cosmos 1697 Rocket 2.7 17:09:17 10° SSW 17:14:46 60° ESE 17:19:15 16° NE
Cosmos 1867 3.9 17:09:28 10° NW 17:14:55 72° SW 17:20:20 10° SSE
Cosmos 990 Rocket 4.1 17:10:13 10° S 17:15:10 53° ESE 17:19:09 16° NE
Cosmos 1953 Rocket 3.8 17:12:11 10° N 17:16:28 45° ENE 17:20:44 10° SSE
MOS 1 Rocket 3.4 17:12:32 10° SSE 17:17:27 71° ENE 17:22:40 10° N
Aureole 1 Rocket 4.3 17:13:55 10° SSE 17:17:46 28° E 17:19:37 22° ENE
SAR-Lupe-4 3.5 17:14:32 10° SSE 17:18:05 88° WSW 17:21:40 10° NNW
IRIDIUM 106 4.5 17:14:57 10° N 17:20:11 77° W 17:25:24 10° S
NOSS 2-2 (D) 4.2 17:20:52 10° W 17:23:41 29° NW 17:25:11 19° N
Cosmos 1782 4.3 17:20:30 10° SW 17:23:46 33° WNW 17:27:04 10° N
ARIANE 5 R/B 2.7 17:19:47 10° SSE 17:24:51 78° WSW 17:30:01 10° NNW
Cosmos 1825 Rocket 3.4 17:21:29 10° N 17:25:52 89° E 17:30:10 10° S
SAR-Lupe-1 4.2 17:25:22 10° S 17:28:58 76° WSW 17:32:36 10° NNW
SOZ 4.4 17:27:25 10° SW 17:29:40 36° SSE 17:29:40 36° SSE
Cosmos 1680 Rocket 4.4 17:27:09 10° N 17:31:32 26° NE 17:31:45 26° NE
Cosmos 2098 Rocket 4.4 17:27:55 10° SW 17:32:01 43° WNW 17:36:49 10° N
USA 81 4.2 17:28:27 10° N 17:33:36 50° ENE 17:38:42 10° SSE
UNK 4.1 17:29:44 10° N 17:34:18 64° WNW 17:38:47 10° SSW
CZ-2D R/B 3.5 17:32:05 10° SSE 17:36:09 53° ENE 17:40:11 10° N
NOSS 3-2 (A) 4.1 17:33:04 10° WSW 17:38:09 43° NNW 17:42:24 19° NNE
Gbstr 26 Del rocket 2.9 17:34:44 10° SW 17:38:39 54° SSE 17:39:37 41° ESE
IRAS Rocket 4.3 17:33:33 10° SE 17:38:47 49° ENE 17:44:03 10° N
NOSS 3-2 (C) 3.3 17:34:12 10° SW 17:39:20 75° NW 17:43:16 23° NE
SPOT 1/Viking Rocket 3.4 17:36:39 10° SSE 17:41:51 76° ENE 17:47:04 10° NNW
PSLV R/B 3.6 17:43:07 40° E 17:43:49 45° ENE 17:47:43 10° N
Cosmos 1076 Rocket 3.4 17:39:36 10° N 17:43:56 88° ENE 17:48:15 10° S
NOSS 2-2 (E) 4.4 17:41:31 10° W 17:44:11 25° NW 17:45:00 22° N
[s.n.66845] 4.1 17:43:15 10° NNW 17:43:44 14° NNW 17:43:44 14° NNW
[s.n.66847] 4.1 17:43:42 10° NNW 17:44:11 14° NNW 17:44:11 14° NNW
[s.n.66846] 4.1 17:44:08 10° NNW 17:44:36 14° NNW 17:44:36 14° NNW
SJ-7 4.4 17:47:21 47° NE 17:47:21 47° NE 17:50:30 10° N
Cosmos 2082 3.8 17:41:40 10° NNW 17:47:18 54° NE 17:50:41 23° ESE
[s.n.66843] 4.1 17:44:41 10° NNW 17:45:08 14° NNW 17:45:08 14° NNW
CZ-4C R/B 3.9 17:40:39 10° NW 17:47:26 50° WSW 17:55:41 10° SSE
SL-19 R/B 4.2 17:42:14 10° SE 17:47:32 58° ENE 17:53:08 10° N
[s.n.66844] 4.1 17:45:07 10° NNW 17:45:35 14° NNW 17:45:35 14° NNW
[s.n.66842] 4.1 17:45:39 10° NNW 17:46:06 14° NNW 17:46:06 14° NNW
COSMO-SKYMED 1 3.1 17:49:12 36° SE 17:49:12 36° SE 17:52:21 10° SSE
[s.n.66841] 4.2 17:46:06 10° NNW 17:46:33 14° NNW 17:46:33 14° NNW
[s.n.66840] 4.2 17:46:37 10° NNW 17:47:03 14° NNW 17:47:03 14° NNW
IRS-P3 4.4 17:44:08 10° S 17:49:26 69° WSW 17:54:45 10° NNW
[s.n.66838] 4.2 17:47:06 10° NNW 17:47:32 13° NNW 17:47:32 13° NNW
Cosmos 2058 Rocket 3.2 17:45:45 10° SSE 17:50:03 50° E 17:50:44 45° ENE
[s.n.66839] 4.2 17:47:36 10° NNW 17:48:01 13° NNW 17:48:01 13° NNW
[s.n.66837] 4.2 17:48:03 10° NNW 17:48:28 13° NNW 17:48:28 13° NNW
[s.n.66836] 4.2 17:48:32 10° NNW 17:48:58 13° NNW 17:48:58 13° NNW
[s.n.66835] 4.2 17:49:04 10° NNW 17:49:28 13° NNW 17:49:28 13° NNW
Cosmos 2297 Rocket 4.5 17:47:36 10° NW 17:52:11 26° WSW 17:56:46 10° SSW
[s.n.66834] 4.2 17:49:33 10° NNW 17:49:57 13° NNW 17:49:57 13° NNW
[s.n.66833] 4.2 17:50:00 10° NNW 17:50:24 13° NNW 17:50:24 13° NNW
[s.n.66832] 4.2 17:50:32 10° NNW 17:50:56 13° NNW 17:50:56 13° NNW
[s.n.66831] 4.3 17:50:57 10° NNW 17:51:21 13° NNW 17:51:21 13° NNW
[s.n.66830] 4.3 17:51:24 10° NNW 17:51:47 13° NNW 17:51:47 13° NNW
[s.n.66828] 4.3 17:51:50 10° NNW 17:52:12 13° NNW 17:52:12 13° NNW
[s.n.66829] 4.3 17:52:22 10° NNW 17:52:43 13° NNW 17:52:43 13° NNW
[s.n.66827] 4.3 17:52:54 10° NNW 17:53:14 13° NNW 17:53:14 13° NNW
[s.n.66826] 4.3 17:53:24 10° NNW 17:53:45 13° NNW 17:53:45 13° NNW
[s.n.66825] 4.3 17:53:50 10° NNW 17:54:11 13° NNW 17:54:11 13° NNW
[s.n.66824] 4.3 17:54:22 10° NNW 17:54:42 13° NNW 17:54:42 13° NNW
[s.n.66823] 4.3 17:54:53 10° NNW 17:55:13 13° NNW 17:55:13 13° NNW
[s.n.66822] 4.4 17:55:22 10° NNW 17:55:42 13° NNW 17:55:42 13° NNW
[s.n.66821] 4.4 17:55:51 10° NNW 17:56:09 12° NNW 17:56:09 12° NNW
Cosmos 1538 Rocket 4.1 17:54:23 10° NNW 17:59:41 81° WSW 18:05:00 10° SSE
Cosmos 1606 Rocket 4.4 17:56:58 10° SSW 18:01:15 50° WNW 18:05:36 10° N
Nadezhda 2 Rocket 4.4 17:55:36 10° N 18:01:42 62° ENE 18:07:43 10° SSE
Meteor 1-26 Rocket 4.1 17:58:40 10° S 18:03:57 58° E 18:05:35 41° NE
Cosmos 1553 Rocket 3.9 18:05:18 10° S 18:11:19 59° E 18:14:52 26° NNE
Lacrosse 5 rocket 2.7 18:08:51 10° WNW 18:11:16 25° NNW 18:11:16 25° NNW
GEOS 3 Rocket 4.2 18:09:53 30° NNE 18:12:23 54° NW 18:17:37 10° WSW
Resurs 1-3 3.5 18:08:22 10° SSE 18:12:40 83° WSW 18:17:01 10° NNW
Cosmos 2219 3.2 18:07:09 10° NNW 18:12:55 88° WSW 18:17:57 14° SSE
BREEZE-M DEB (TANK) 3.8 18:11:24 10° WSW 18:12:05 21° WSW 18:12:05 21° WSW
SL-16 R/B 4.3 18:11:27 10° N 18:16:30 27° NW 18:21:33 10° WSW
Cosmos 1980 Rocket 2.0 18:12:32 10° SSW 18:18:12 83° ESE 18:19:44 50° NE
Cosmos 1844 Rocket 3.4 18:14:47 10° NNW 18:18:59 37° NNE 18:18:59 37° NNE
CENTAUR R/B 4.0 18:15:20 10° WNW 18:21:11 31° N 18:24:02 25° NNE
USA 281 4.4 18:22:44 25° NNE 18:22:44 25° NNE 18:26:44 10° NNW
Spot 4 Rocket 4.3 18:19:25 10° S 18:24:29 66° WSW 18:29:37 10° NNW
NOSS 2-3 (C) 4.0 18:21:27 10° SW 18:23:55 44° WSW 18:23:55 44° WSW
Cosmos 1745 Rocket 4.3 18:20:00 10° N 18:24:48 46° NE 18:24:48 46° NE
Cosmos 2263 Rocket 3.0 18:22:00 10° NW 18:27:29 50° WSW 18:32:56 10° S
Cosmos 1898 Rocket 3.3 18:25:10 10° SSW 18:30:11 80° SE 18:30:11 80° SE
Cosmos 2369 3.7 18:25:33 10° SSW 18:30:42 60° SE 18:30:42 60° SE
Cosmos 44 Rocket 4.3 18:28:40 10° NNW 18:32:08 36° N 18:32:08 36° N
YAOGAN 1 3.5 18:32:16 10° S 18:36:22 47° W 18:40:31 10° NNW
SKYMED 2 4.4 18:36:02 38° NNW 18:37:10 47° WNW 18:41:19 10° SW
Cosmos-2242 3.6 18:32:58 10° SSW 18:36:35 55° WSW 18:36:35 55° WSW
USA 238 DEB 3.4 18:33:50 10° SW 18:40:00 86° NW 18:41:14 62° NE
USA 238 3.4 18:33:56 10° SW 18:40:06 87° NW 18:41:19 62° NE
Cosmos 923 Rocket 4.0 18:36:21 10° NNW 18:41:32 80° WSW 18:41:32 80° WSW
USA 215 3.3 18:41:10 56° NE 18:41:52 59° NNE 18:48:18 10° WNW
Cosmos 372 Rocket 4.1 18:37:43 10° SSW 18:42:51 69° WNW 18:43:10 66° NW
Cosmos 2227 Rocket 4.4 18:39:12 10° NW 18:43:34 23° WSW 18:47:55 10° SSW
Cosmos 1937 Rocket 4.1 18:43:55 10° SSW 18:47:30 46° SSW 18:47:30 46° SSW
Cosmos 1386 Rocket 4.4 18:45:31 10° N 18:51:37 84° W 18:57:48 10° S
Cosmos 1697 Rocket 4.2 18:54:09 10° WSW 18:59:05 31° NW 19:00:59 25° NNW
Aureole 1 Rocket 4.3 18:55:04 10° SW 18:59:35 48° WNW 19:00:04 46° NW
COSMOS 2455 4.3 19:10:11 10° SSW 19:12:49 27° SSW 19:12:49 27° SSW
Cosmos 1980 Rocket 4.3 19:58:18 10° W 20:01:31 22° WNW 20:01:31 22° WNW
CENTAUR R/B 4.4 20:07:13 10° NW 20:11:08 28° NNW 20:11:08 28° NNW
